Find Starlink 31166

NORAD ID: 58789 Int'l Des: 2024-012 Owner: SPXS Country: US Constellation: starlink operational
LEOCIRCULAR

Live-Position

3D-Globus wird geladen...

Über Starlink 31166

Beschreibung wird geladen...

Nächste Überflüge

Passes for default location (London). Set your location on the main map for personalized predictions.

Höhenverlauf

Loading altitude history...

Zweizeiliger Elementsatz

1 58789U 24012C 26121.29940983 .00001154 00000-0 51446-4 0 9997
2 58789 43.0000 227.9867 0001400 219.0248 141.0503 15.27593650129287
Epoch: 1. Mai 2026 • Age: 8 hours

Aktueller Status

Höhe 494.8 km
Geschwindigkeit 7.62 km/s
Subsatellitenpunkt -40.28°S, 81.16°E
Startdatum 15. Jan. 2024
Alter 2.2 years
Typ internet

Technische Details

Klassifizierung Payload
Masse 730.00 kg
Trockenmasse 700.00 kg
Gesamtmasse 730.00 kg
Länge 0.30 m
Durchmesser 4.10 m
Spannweite 29.00 m
Form Box + pan
Hersteller SPXS
Bus-Typ Starlink V2M
Phasenstatus In Orbit
Besitzer/Staat SPXS/US

Most Searched